Home   Weather   New Haven   Past weeks

Flag for USA Past Weather in New Haven, Connecticut, USA — Yesterday and Last 2 Weeks

Now
38 °F

Low clouds.


Feels Like: 33 °F
Forecast: 37 / 42 °F
Wind: 7 mph from Northeast

Location: Tweed-New Haven Airport

Current Time: Jan 18, 2017 at 1:14:02 am

Latest Report: Jan 17, 2017 at 11:53 pm


Visibility: N/A

Pressure: 29.98 "Hg

Humidity: 93%

Dew Point: 36 °F

Location of New HavenLocation

Past Weather in New Haven — Graph

°F

New Haven Temperature Yesterday

Maximum temperature yesterday: 40 °F (at 12:53 pm)
Minimum temperature yesterday: 35 °F (at 5:53 am)
Average temperature yesterday: 37 °F

High & Low Weather Summary for the Past Weeks

 TemperatureHumidityPressure
High54 °F (Jan 13, 12:53 am)100% (Jan 4, 12:13 am)30.74 "Hg (Jan 4, 12:13 am)
Low7 °F (Jan 9, 7:53 am)35% (Jan 4, 7:53 pm)29.41 "Hg (Jan 4, 3:34 am)
Average32 °F73%30.18 "Hg
* Reported Jan 2 11:53 pm — Jan 17 11:53 pm, New Haven, Weather by CustomWeather, © 2017

Note: Actual official high and low records may vary slightly from our data, if they occured in-between our weather recording intervals... More about our weather records

Advertising

New Haven Weather History for the Previous 24 Hours

Scroll right to see more
 ConditionsComfort  
Time TempWeatherWind HumidityBarometerVisibility
11:53 pm
Tue, Jan 17
38 °FLow clouds.7 mph93%29.98 "HgN/A
11:24 pm37 °FLow clouds.7 mph93%30.00 "HgN/A
10:53 pm36 °FOvercast.7 mph92%30.02 "Hg8 mi
9:53 pm36 °FLight rain. Fog.7 mph89%30.05 "Hg6 mi
9:20 pm36 °FOvercast.7 mph89%30.05 "Hg10 mi
8:53 pm36 °FOvercast.8 mph85%30.05 "Hg10 mi
7:53 pm36 °FLight rain. Overcast.7 mph82%30.09 "Hg10 mi
6:53 pm37 °FLight rain. Overcast.6 mph79%30.12 "Hg10 mi
5:53 pm38 °FLight rain. Overcast.9 mph76%30.12 "Hg10 mi
4:53 pm38 °FLight rain. Overcast.9 mph76%30.12 "Hg10 mi
3:53 pm38 °FLight rain. Overcast.7 mph73%30.14 "Hg8 mi
2:53 pm39 °FLight rain. Overcast.8 mph62%30.14 "Hg10 mi
1:53 pm40 °FOvercast.8 mph58%30.15 "Hg10 mi
12:53 pm40 °FOvercast.3 mph77%30.16 "Hg8 mi
11:53 am38 °FOvercast.No wind79%30.20 "Hg7 mi
10:53 am38 °FMostly cloudy.No wind73%30.22 "Hg7 mi
9:53 am38 °FMostly cloudy.No wind68%30.23 "Hg10 mi
8:53 am37 °FPartly sunny.No wind76%30.22 "Hg10 mi
7:53 am37 °FPartly sunny.No wind73%30.22 "Hg10 mi
6:53 am36 °FMostly cloudy.No wind75%30.22 "Hg10 mi
5:53 am35 °FOvercast.No wind72%30.22 "Hg10 mi
4:53 am37 °FOvercast.No wind70%30.22 "HgN/A
3:53 am37 °FOvercast.No wind70%30.22 "Hg10 mi
2:53 am38 °FOvercast.3 mph68%30.23 "Hg10 mi
1:53 am37 °FOvercast.3 mph76%30.24 "Hg10 mi
Weather by CustomWeather, © 2017

See weather overviewHow to use our weather pages